Location: Brodeslavy
(49.9527°N, 13.5567°E)
Time: 21:02:17
(UTC+00:00)

Cosmos 1892 - Pass Details

Date: 17 June 2025
Orbit: 364 x 370 km, 82.5° (Epoch: 16 July)

Event Time Altitude Azimuth Distance (km) Brightness Sun altitude
Exits shadow 21:17:02 24° 137° (SE) 846 3.2 -12.7°
Maximum altitude 21:18:12 33° 94° (E) 666 3.0 -12.8°
Drops below altitude 10° 21:20:58 10° 28° (NNE) 1,398 5.4 -13.0°
Sets 21:23:03 0° 18° (NNE) 2,251 6.7 -13.1°
